| time (UTC) | temp F | wind direction | speed knots | gust knots | rain 1hr in | rain 24hr in | rain mn in | humidity % | barometer mb |
| 20260902034258 | 50 | 332 | 0.0 | 0.9 | 0.00 | 0.00 | 0.00 | 95 | 974.9 |
| 20260902033823 | 50 | 332 | 0.9 | 0.9 | 0.00 | 0.00 | 0.00 | 95 | 974.8 |
| 20260902033328 | 50 | 332 | 0.9 | 0.9 | 0.00 | 0.00 | 0.00 | 95 | 974.8 |
| 20260902032833 | 50 | 332 | 0.0 | 0.0 | 0.00 | 0.00 | 0.00 | 94 | 974.9 |
| 20260902032403 | 50 | 332 | 0.0 | 0.0 | 0.00 | 0.00 | 0.00 | 94 | 974.7 |
| 20260902031953 | 51 | 332 | 0.0 | 0.0 | 0.00 | 0.00 | 0.00 | 94 | 974.7 |
| 20260902031505 | 51 | 332 | 0.0 | 0.0 | 0.00 | 0.00 | 0.00 | 94 | 974.8 |
| 20260902031053 | 51 | 332 | 0.0 | 0.9 | 0.00 | 0.00 | 0.00 | 94 | 974.8 |
| 20260902030555 | 51 | 332 | 0.9 | 0.9 | 0.00 | 0.00 | 0.00 | 94 | 974.9 |
| 20260902030128 | 51 | 332 | 1.7 | 0.9 | 0.00 | 0.00 | 0.00 | 93 | 974.7 |
| 20260902025653 | 51 | 332 | 0.0 | 0.9 | 0.00 | 0.00 | 0.00 | 93 | 974.8 |
| 20260902025243 | 51 | 332 | 0.0 | 0.9 | 0.00 | 0.00 | 0.00 | 93 | 974.6 |
| 20260902024828 | 51 | 332 | 0.0 | 0.9 | 0.00 | 0.00 | 0.00 | 93 | 974.8 |
| 20260902024413 | 51 | 332 | 0.0 | 0.9 | 0.00 | 0.00 | 0.00 | 93 | 974.9 |
| 20260902023923 | 51 | 332 | 0.0 | 0.9 | 0.00 | 0.00 | 0.00 | 93 | 975.0 |
| 20260902023435 | 51 | 332 | 0.0 | 0.9 | 0.00 | 0.00 | 0.00 | 93 | 974.9 |
| 20260902022947 | 51 | 330 | 0.9 | 0.0 | 0.00 | 0.00 | 0.00 | 93 | 975.0 |
| 20260902022523 | 51 | 330 | 1.7 | 0.9 | 0.00 | 0.00 | 0.00 | 93 | 974.9 |
| 20260902022043 | 51 | 330 | 0.9 | 0.9 | 0.00 | 0.00 | 0.00 | 93 | 974.7 |
| 20260902021613 | 51 | 330 | 0.9 | 0.9 | 0.00 | 0.00 | 0.00 | 93 | 974.9 |
| 20260902021128 | 51 | 330 | 0.9 | 0.9 | 0.00 | 0.00 | 0.00 | 93 | 974.9 |
| 20260902020653 | 51 | 330 | 0.9 | 0.9 | 0.00 | 0.00 | 0.00 | 93 | 974.9 |
| 20260902020243 | 51 | 330 | 0.0 | 0.0 | 0.00 | 0.00 | 0.00 | 90 | 974.7 |
| 20260902015805 | 51 | 330 | 0.0 | 0.0 | 0.00 | 0.00 | 0.00 | 90 | 974.9 |
| 20260902015403 | 51 | 330 | 0.0 | 0.0 | 0.00 | 0.00 | 0.00 | 90 | 975.0 |
| 20260902014923 | 51 | 330 | 0.0 | 0.0 | 0.00 | 0.00 | 0.00 | 90 | 974.9 |
| 20260902014453 | 53 | 330 | 0.9 | 0.0 | 0.00 | 0.00 | 0.00 | 90 | 975.0 |
| 20260902014015 | 53 | 330 | 0.0 | 0.0 | 0.00 | 0.00 | 0.00 | 90 | 975.1 |
| 20260902013608 | 53 | 330 | 0.0 | 0.0 | 0.00 | 0.00 | 0.00 | 90 | 975.0 |
| 20260902013138 | 53 | 330 | 0.0 | 0.9 | 0.00 | 0.00 | 0.00 | 90 | 975.1 |
| 20260902012713 | 53 | 330 | 0.0 | 0.9 | 0.00 | 0.00 | 0.00 | 90 | 975.0 |
| 20260902012308 | 53 | 330 | 0.9 | 0.0 | 0.00 | 0.00 | 0.00 | 90 | 975.2 |
| 20260902011818 | 53 | 330 | 0.9 | 0.0 | 0.00 | 0.00 | 0.00 | 90 | 975.0 |
| 20260902011343 | 53 | 330 | 0.9 | 0.0 | 0.00 | 0.00 | 0.00 | 90 | 975.2 |
| 20260902010923 | 53 | 330 | 0.9 | 0.0 | 0.00 | 0.00 | 0.00 | 90 | 975.1 |
| 20260902010505 | 53 | 330 | 0.9 | 0.0 | 0.00 | 0.00 | 0.00 | 89 | 975.1 |
| 20260902010055 | 53 | 330 | 0.9 | 0.0 | 0.00 | 0.00 | 0.00 | 90 | 975.2 |
| 20260902005628 | 53 | 330 | 0.9 | 0.0 | 0.00 | 0.00 | 0.00 | 90 | 975.2 |
| 20260902005223 | 53 | 330 | 0.9 | 0.0 | 0.00 | 0.00 | 0.00 | 90 | 975.1 |
| 20260902004808 | 53 | 330 | 0.9 | 0.0 | 0.00 | 0.00 | 0.00 | 89 | 975.3 |
| 20260902004343 | 53 | 330 | 0.9 | 0.0 | 0.00 | 0.00 | 0.00 | 89 | 975.0 |
| 20260902003918 | 53 | 330 | 0.9 | 0.0 | 0.00 | 0.00 | 0.00 | 89 | 975.1 |
| 20260902003423 | 53 | 330 | 0.9 | 0.0 | 0.00 | 0.00 | 0.00 | 89 | 975.2 |
| 20260902003003 | 53 | 330 | 0.9 | 0.0 | 0.00 | 0.00 | 0.00 | 87 | 975.1 |
| 20260902002523 | 53 | 330 | 0.9 | 0.9 | 0.00 | 0.00 | 0.00 | 87 | 975.2 |
| 20260902002053 | 53 | 330 | 0.9 | 0.0 | 0.00 | 0.00 | 0.00 | 87 | 975.3 |
| 20260902001608 | 53 | 331 | 0.0 | 0.9 | 0.00 | 0.00 | 0.00 | 87 | 975.0 |
| 20260902001138 | 53 | 331 | 0.0 | 0.9 | 0.00 | 0.00 | 0.00 | 87 | 975.3 |
| 20260902000728 | 53 | 331 | 0.0 | 0.0 | 0.00 | 0.00 | 0.00 | 87 | 975.2 |
| 20260902000234 | 53 | 331 | 0.0 | 0.0 | 0.00 | 0.00 | 0.00 | 87 | 975.2 |
| 20260901235808 | 53 | 331 | 0.9 | 0.0 | 0.00 | 0.00 | 0.00 | 87 | 975.4 |
| 20260901235335 | 55 | 331 | 0.9 | 0.0 | 0.00 | 0.00 | 0.00 | 87 | 975.2 |
| 20260901234908 | 55 | 331 | 1.7 | 0.0 | 0.00 | 0.00 | 0.00 | 87 | 975.1 |
| 20260901234408 | 55 | 331 | 0.9 | 0.0 | 0.00 | 0.00 | 0.00 | 87 | 975.1 |
| 20260901233953 | 55 | 331 | 0.0 | 0.0 | 0.00 | 0.00 | 0.00 | 87 | 974.9 |
| 20260901233538 | 55 | 331 | 0.0 | 0.0 | 0.00 | 0.00 | 0.00 | 87 | 975.0 |
| 20260901233118 | 55 | 331 | 0.0 | 0.0 | 0.00 | 0.00 | 0.00 | 87 | 974.9 |
| 20260901232633 | 55 | 331 | 0.9 | 0.0 | 0.00 | 0.00 | 0.00 | 87 | 975.1 |
| 20260901232218 | 55 | 331 | 0.0 | 0.0 | 0.00 | 0.00 | 0.00 | 87 | 975.1 |
| 20260901231758 | 55 | 331 | 0.9 | 0.9 | 0.00 | 0.00 | 0.00 | 87 | 975.0 |
| 20260901231343 | 55 | 330 | 0.0 | 0.9 | 0.00 | 0.00 | 0.00 | 87 | 975.1 |
| 20260901230935 | 55 | 330 | 0.0 | 0.0 | 0.00 | 0.00 | 0.00 | 87 | 975.1 |
| 20260901230453 | 55 | 330 | 0.9 | 0.9 | 0.00 | 0.00 | 0.00 | 87 | 975.2 |
| 20260901230013 | 55 | 318 | 0.9 | 0.9 | 0.00 | 0.00 | 0.00 | 87 | 975.1 |
| 20260901225533 | 55 | 318 | 1.7 | 0.9 | 0.00 | 0.00 | 0.00 | 87 | 975.2 |
| 20260901225058 | 55 | 318 | 0.9 | 0.9 | 0.00 | 0.00 | 0.00 | 87 | 975.2 |
| 20260901224633 | 55 | 318 | 0.0 | 0.9 | 0.00 | 0.00 | 0.00 | 87 | 975.2 |
| 20260901224148 | 55 | 318 | 0.0 | 0.0 | 0.00 | 0.00 | 0.00 | 87 | 975.2 |
| 20260901223733 | 55 | 318 | 0.0 | 0.0 | 0.00 | 0.00 | 0.00 | 87 | 975.1 |
| 20260901223303 | 55 | 318 | 0.0 | 0.0 | 0.00 | 0.00 | 0.00 | 87 | 975.0 |
| 20260901222833 | 55 | 318 | 0.0 | 0.0 | 0.00 | 0.00 | 0.00 | 87 | 975.1 |
| 20260901222338 | 59 | 318 | 0.0 | 0.0 | 0.00 | 0.00 | 0.00 | 87 | 975.1 |
| 20260901221858 | 59 | 318 | 0.0 | 0.0 | 0.00 | 0.00 | 0.00 | 87 | 975.0 |
| 20260901221438 | 59 | 318 | 0.0 | 0.0 | 0.00 | 0.00 | 0.00 | 87 | 975.0 |
| 20260901220948 | 59 | 318 | 0.0 | 0.0 | 0.00 | 0.00 | 0.00 | 86 | 975.1 |
| 20260901220508 | 59 | 318 | 0.0 | 0.0 | 0.00 | 0.00 | 0.00 | 86 | 975.0 |
| 20260901220038 | 59 | 318 | 0.0 | 0.0 | 0.00 | 0.00 | 0.00 | 85 | 975.1 |
| 20260901215603 | 59 | 318 | 0.0 | 0.0 | 0.00 | 0.00 | 0.00 | 80 | 974.9 |
| 20260901215133 | 59 | 318 | 0.0 | 0.0 | 0.00 | 0.00 | 0.00 | 80 | 975.3 |
| 20260901214718 | 59 | 318 | 0.0 | 0.0 | 0.00 | 0.00 | 0.00 | 80 | 975.0 |
| 20260901214238 | 59 | 318 | 0.9 | 0.9 | 0.00 | 0.00 | 0.00 | 80 | 974.9 |
| 20260901213758 | 59 | 164 | 0.0 | 0.9 | 0.00 | 0.00 | 0.00 | 80 | 975.0 |
| 20260901213308 | 59 | 164 | 0.0 | 0.0 | 0.00 | 0.00 | 0.00 | 80 | 974.9 |
| 20260901212843 | 59 | 164 | 0.0 | 0.0 | 0.00 | 0.00 | 0.00 | 80 | 975.0 |
| 20260901212413 | 59 | 164 | 0.9 | 0.9 | 0.00 | 0.00 | 0.00 | 80 | 975.0 |
| 20260901211948 | 59 | 164 | 0.0 | 0.9 | 0.00 | 0.00 | 0.00 | 80 | 974.9 |
| 20260901211518 | 59 | 164 | 0.0 | 0.9 | 0.00 | 0.00 | 0.00 | 80 | 974.9 |
| 20260901211048 | 59 | 164 | 0.0 | 0.9 | 0.00 | 0.00 | 0.00 | 80 | 975.0 |
| 20260901210623 | 59 | 164 | 0.9 | 0.9 | 0.00 | 0.00 | 0.00 | 80 | 974.8 |
| 20260901210213 | 59 | 164 | 0.9 | 2.6 | 0.00 | 0.00 | 0.00 | 80 | 974.6 |
| 20260901205733 | 59 | 164 | 0.0 | 2.6 | 0.00 | 0.00 | 0.00 | 80 | 974.7 |
| 20260901205306 | 59 | 168 | 0.0 | 0.0 | 0.00 | 0.00 | 0.00 | 80 | 974.9 |
| 20260901204848 | 59 | 168 | 0.0 | 0.0 | 0.00 | 0.00 | 0.00 | 80 | 975.0 |
| 20260901204418 | 59 | 168 | 0.0 | 0.0 | 0.00 | 0.00 | 0.00 | 80 | 974.7 |
| 20260901203935 | 59 | 168 | 0.0 | 0.0 | 0.00 | 0.00 | 0.00 | 80 | 974.9 |
| 20260901203508 | 59 | 168 | 0.0 | 0.0 | 0.00 | 0.00 | 0.00 | 80 | 974.8 |
| 20260901203033 | 59 | 168 | 0.9 | 0.9 | 0.00 | 0.00 | 0.00 | 80 | 974.8 |
| 20260901202618 | 59 | 168 | 0.0 | 0.9 | 0.00 | 0.00 | 0.00 | 80 | 974.9 |
| 20260901202135 | 59 | 168 | 0.0 | 0.9 | 0.00 | 0.00 | 0.00 | 73 | 974.5 |
| 20260901201653 | 59 | 220 | 0.0 | 0.9 | 0.00 | 0.00 | 0.00 | 73 | 974.7 |
| 20260901201223 | 59 | 220 | 0.0 | 0.0 | 0.00 | 0.00 | 0.00 | 73 | 974.7 |
| 20260901200803 | 59 | 220 | 0.0 | 0.9 | 0.00 | 0.00 | 0.00 | 73 | 974.7 |
| 20260901200338 | 59 | 220 | 0.0 | 0.9 | 0.00 | 0.00 | 0.00 | 73 | 974.7 |
| 20260901195928 | 62 | 220 | 0.0 | 0.9 | 0.00 | 0.00 | 0.00 | 73 | 974.7 |
| 20260901195458 | 62 | 220 | 0.9 | 0.9 | 0.00 | 0.00 | 0.00 | 73 | 974.5 |
| 20260901195043 | 62 | 220 | 0.9 | 0.9 | 0.00 | 0.00 | 0.00 | 73 | 974.8 |
| 20260901194608 | 62 | 220 | 0.9 | 0.9 | 0.00 | 0.00 | 0.00 | 73 | 974.6 |
| 20260901194125 | 62 | 235 | 0.9 | 0.9 | 0.00 | 0.00 | 0.00 | 73 | 974.5 |
| 20260901193708 | 62 | 235 | 0.0 | 0.9 | 0.00 | 0.00 | 0.00 | 73 | 974.7 |
| 20260901193223 | 62 | 235 | 0.0 | 0.9 | 0.00 | 0.00 | 0.00 | 73 | 974.7 |
| 20260901192758 | 62 | 235 | 1.7 | 0.9 | 0.00 | 0.00 | 0.00 | 73 | 974.6 |
| 20260901192318 | 62 | 174 | 0.0 | 0.0 | 0.00 | 0.00 | 0.00 | 62 | 974.6 |
| 20260901191855 | 62 | 174 | 0.0 | 0.0 | 0.00 | 0.00 | 0.00 | 62 | 974.5 |
| 20260901191453 | 62 | 174 | 0.0 | 0.0 | 0.00 | 0.00 | 0.00 | 62 | 974.4 |
| 20260901191038 | 62 | 174 | 0.0 | 0.9 | 0.00 | 0.00 | 0.00 | 62 | 974.6 |
| 20260901190613 | 64 | 174 | 0.0 | 0.9 | 0.00 | 0.00 | 0.00 | 62 | 974.5 |
| 20260901190133 | 64 | 174 | 0.0 | 0.9 | 0.00 | 0.00 | 0.00 | 62 | 974.4 |
| 20260901185658 | 64 | 174 | 0.0 | 0.0 | 0.00 | 0.00 | 0.00 | 62 | 974.4 |
| 20260901185238 | 64 | 174 | 0.0 | 0.0 | 0.00 | 0.00 | 0.00 | 62 | 974.3 |
| 20260901184815 | 64 | 174 | 0.0 | 0.0 | 0.00 | 0.00 | 0.00 | 62 | 974.2 |
| 20260901184403 | 64 | 174 | 0.0 | 0.0 | 0.00 | 0.00 | 0.00 | 62 | 974.4 |
| 20260901183943 | 64 | 174 | 0.9 | 0.0 | 0.00 | 0.00 | 0.00 | 62 | 974.3 |
| 20260901183458 | 64 | 174 | 1.7 | 0.0 | 0.00 | 0.00 | 0.00 | 62 | 974.4 |
| 20260901183003 | 65 | 174 | 0.0 | 0.0 | 0.00 | 0.00 | 0.00 | 62 | 974.1 |
| 20260901182523 | 65 | 174 | 0.9 | 0.0 | 0.00 | 0.00 | 0.00 | 62 | 974.0 |
| 20260901182113 | 65 | 174 | 0.9 | 0.0 | 0.00 | 0.00 | 0.00 | 62 | 974.3 |
| 20260901181708 | 69 | 174 | 0.9 | 0.0 | 0.00 | 0.00 | 0.00 | 62 | 974.0 |
| 20260901181235 | 69 | 174 | 0.9 | 0.9 | 0.00 | 0.00 | 0.00 | 62 | 974.3 |
| 20260901180808 | 69 | 174 | 0.9 | 0.9 | 0.00 | 0.00 | 0.00 | 59 | 974.0 |
| 20260901180343 | 69 | 174 | 0.9 | 0.9 | 0.00 | 0.00 | 0.00 | 59 | 974.1 |
| 20260901175923 | 69 | 175 | 0.9 | 0.9 | 0.00 | 0.00 | 0.00 | 49 | 973.8 |
| 20260901175455 | 69 | 175 | 0.9 | 0.0 | 0.00 | 0.00 | 0.00 | 49 | 973.9 |
| 20260901175028 | 69 | 307 | 1.7 | 0.9 | 0.00 | 0.00 | 0.00 | 49 | 973.7 |
| 20260901174559 | 69 | 307 | 1.7 | 0.9 | 0.00 | 0.00 | 0.00 | 49 | 973.7 |
| 20260901174115 | 69 | 303 | 1.7 | 0.9 | 0.00 | 0.00 | 0.00 | 49 | 973.8 |
| 20260901173648 | 69 | 303 | 1.7 | 2.6 | 0.00 | 0.00 | 0.00 | 49 | 973.8 |
| 20260901173223 | 69 | 303 | 0.0 | 2.6 | 0.00 | 0.00 | 0.00 | 49 | 973.9 |
| 20260901172808 | 69 | 135 | 0.0 | 2.6 | 0.00 | 0.00 | 0.00 | 49 | 973.7 |
| 20260901172343 | 70 | 135 | 0.9 | 4.3 | 0.00 | 0.00 | 0.00 | 49 | 973.8 |
| 20260901171913 | 71 | 101 | 0.9 | 4.3 | 0.00 | 0.00 | 0.00 | 49 | 973.9 |
| 20260901171448 | 71 | 101 | 0.9 | 2.6 | 0.00 | 0.00 | 0.00 | 49 | 973.7 |
| 20260901171013 | 71 | 79 | 0.9 | 0.9 | 0.00 | 0.00 | 0.00 | 49 | 973.8 |
| 20260901170543 | 71 | 79 | 2.6 | 0.9 | 0.00 | 0.00 | 0.00 | 49 | 973.8 |
| 20260901170059 | 71 | 144 | 2.6 | 2.6 | 0.00 | 0.00 | 0.00 | 47 | 973.7 |
| 20260901165618 | 70 | 181 | 2.6 | 6.1 | 0.00 | 0.00 | 0.00 | 47 | 973.8 |
| 20260901165128 | 70 | 181 | 0.0 | 6.1 | 0.00 | 0.00 | 0.00 | 47 | 973.7 |
| 20260901164658 | 71 | 286 | 1.7 | 6.1 | 0.00 | 0.00 | 0.00 | 47 | 973.7 |
| 20260901164228 | 71 | 286 | 2.6 | 7.8 | 0.00 | 0.00 | 0.00 | 47 | 973.9 |
| 20260901163803 | 71 | 171 | 0.9 | 7.8 | 0.00 | 0.00 | 0.00 | 47 | 974.1 |
| 20260901163358 | 71 | 171 | 3.5 | 7.8 | 0.00 | 0.00 | 0.00 | 47 | 974.0 |
| 20260901162923 | 71 | 124 | 3.5 | 4.3 | 0.00 | 0.00 | 0.00 | 47 | 974.0 |
| 20260901162503 | 71 | 124 | 1.7 | 2.6 | 0.00 | 0.00 | 0.00 | 47 | 974.2 |
| 20260901162028 | 71 | 132 | 5.2 | 4.3 | 0.00 | 0.00 | 0.00 | 47 | 974.0 |
| 20260901161538 | 71 | 108 | 5.2 | 4.3 | 0.00 | 0.00 | 0.00 | 47 | 974.1 |
| 20260901161115 | 71 | 121 | 2.6 | 4.3 | 0.00 | 0.00 | 0.00 | 47 | 973.9 |
| 20260901160638 | 71 | 106 | 4.3 | 7.8 | 0.00 | 0.00 | 0.00 | 47 | 974.1 |
| 20260901160203 | 71 | 123 | 3.5 | 4.3 | 0.00 | 0.00 | 0.00 | 45 | 974.2 |
| 20260901155733 | 71 | 138 | 0.9 | 9.6 | 0.00 | 0.00 | 0.00 | 45 | 974.0 |
| 20260901155253 | 71 | 136 | 1.7 | 6.1 | 0.00 | 0.00 | 0.00 | 45 | 974.0 |
| 20260901154818 | 72 | 139 | 3.5 | 4.3 | 0.00 | 0.00 | 0.00 | 45 | 974.1 |
| 20260901154343 | 72 | 171 | 6.1 | 4.3 | 0.00 | 0.00 | 0.00 | 45 | 974.2 |
| 20260901153855 | 72 | 314 | 6.1 | 4.3 | 0.00 | 0.00 | 0.00 | 45 | 974.1 |
| 20260901153418 | 72 | 344 | 6.1 | 7.8 | 0.00 | 0.00 | 0.00 | 45 | 974.0 |
| 20260901152955 | 72 | 344 | 6.1 | 9.6 | 0.00 | 0.00 | 0.00 | 45 | 974.1 |
| 20260901152553 | 72 | 344 | 3.5 | 7.8 | 0.00 | 0.00 | 0.00 | 45 | 974.0 |
| 20260901152113 | 71 | 326 | 5.2 | 6.1 | 0.00 | 0.00 | 0.00 | 45 | 974.0 |
| 20260901151628 | 71 | 184 | 5.2 | 7.8 | 0.00 | 0.00 | 0.00 | 45 | 974.1 |
| 20260901151139 | 71 | 267 | 0.0 | 7.8 | 0.00 | 0.00 | 0.00 | 45 | 974.1 |
| 20260901150653 | 71 | 150 | 5.2 | 4.3 | 0.00 | 0.00 | 0.00 | 45 | 974.0 |
| 20260901150248 | 71 | 277 | 0.0 | 0.0 | 0.00 | 0.00 | 0.00 | 100 | 974.1 |
| 20260901145835 | 69 | 288 | 1.7 | 4.3 | 0.00 | 0.00 | 0.00 | 100 | 973.8 |
| 20260901145348 | 70 | 326 | 5.2 | 7.8 | 0.00 | 0.00 | 0.00 | 100 | 974.1 |
| 20260901144933 | 70 | 354 | 0.0 | 0.0 | 0.00 | 0.00 | 0.00 | 100 | 974.0 |
| 20260901144513 | 70 | 330 | 0.9 | 9.6 | 0.00 | 0.00 | 0.00 | 48 | 974.0 |
| 20260901144048 | 71 | 330 | 9.6 | 7.8 | 0.00 | 0.00 | 0.00 | 47 | 974.1 |
| 20260901143613 | 71 | 253 | 0.9 | 11.3 | 0.00 | 0.00 | 0.00 | 52 | 974.3 |
| 20260901143135 | 71 | 343 | 8.7 | 6.1 | 0.00 | 0.00 | 0.00 | 52 | 974.0 |
| 20260901142718 | 71 | 299 | 3.5 | 12.2 | 0.00 | 0.00 | 0.00 | 52 | 974.0 |
| 20260901142308 | 71 | 334 | 3.5 | 9.6 | 0.00 | 0.00 | 0.00 | 52 | 974.1 |
| 20260901141853 | 71 | 337 | 3.5 | 12.2 | 0.00 | 0.00 | 0.00 | 52 | 974.2 |
| 20260901141423 | 69 | 337 | 3.5 | 6.1 | 0.00 | 0.00 | 0.00 | 52 | 974.2 |
| 20260901140954 | 68 | 306 | 0.9 | 9.6 | 0.00 | 0.00 | 0.00 | 52 | 974.2 |
| 20260901140528 | 68 | 169 | 0.9 | 7.8 | 0.00 | 0.00 | 0.00 | 52 | 974.5 |
| 20260901140058 | 70 | 169 | 0.9 | 12.2 | 0.00 | 0.00 | 0.00 | 51 | 974.3 |
| 20260901135653 | 70 | 305 | 0.9 | 15.6 | 0.00 | 0.00 | 0.00 | 51 | 974.4 |
| 20260901135223 | 70 | 287 | 2.6 | 6.1 | 0.00 | 0.00 | 0.00 | 51 | 974.3 |
| 20260901134753 | 70 | 230 | 2.6 | 12.2 | 0.00 | 0.00 | 0.00 | 51 | 974.3 |
| 20260901134323 | 69 | 1 | 2.6 | 6.1 | 0.00 | 0.00 | 0.00 | 51 | 974.3 |
| 20260901133853 | 69 | 343 | 4.3 | 7.8 | 0.00 | 0.00 | 0.00 | 50 | 974.4 |
| 20260901133426 | 69 | 262 | 4.3 | 9.6 | 0.00 | 0.00 | 0.00 | 51 | 974.5 |
| 20260901133015 | 69 | 343 | 0.9 | 9.6 | 0.00 | 0.00 | 0.00 | 54 | 974.5 |
| 20260901132547 | 71 | 127 | 6.1 | 7.8 | 0.00 | 0.00 | 0.00 | 54 | 974.5 |
| 20260901132148 | 69 | 127 | 3.5 | 6.1 | 0.00 | 0.00 | 0.00 | 54 | 974.6 |
| 20260901131728 | 67 | 199 | 1.7 | 6.1 | 0.00 | 0.00 | 0.00 | 54 | 974.7 |
| 20260901131233 | 67 | 57 | 0.9 | 2.6 | 0.00 | 0.00 | 0.00 | 54 | 974.5 |
| 20260901130818 | 67 | 298 | 3.5 | 4.3 | 0.00 | 0.00 | 0.00 | 54 | 974.6 |
| 20260901130338 | 68 | 298 | 5.2 | 4.3 | 0.00 | 0.00 | 0.00 | 54 | 974.8 |
| 20260901125928 | 67 | 276 | 5.2 | 4.3 | 0.00 | 0.00 | 0.00 | 54 | 975.0 |
| 20260901125453 | 67 | 342 | 4.3 | 9.6 | 0.00 | 0.00 | 0.00 | 54 | 974.7 |
| 20260901125033 | 68 | 307 | 0.9 | 6.1 | 0.00 | 0.00 | 0.00 | 54 | 974.7 |
| 20260901124533 | 68 | 351 | 0.9 | 2.6 | 0.00 | 0.00 | 0.00 | 54 | 974.8 |
| 20260901124103 | 68 | 347 | 5.2 | 9.6 | 0.00 | 0.00 | 0.00 | 54 | 974.6 |
| 20260901123608 | 68 | 318 | 7.0 | 9.6 | 0.00 | 0.00 | 0.00 | 54 | 974.7 |
| 20260901123133 | 68 | 305 | 1.7 | 9.6 | 0.00 | 0.00 | 0.00 | 54 | 974.7 |
| 20260901122653 | 68 | 147 | 1.7 | 11.3 | 0.00 | 0.00 | 0.00 | 59 | 974.8 |
| 20260901122223 | 69 | 2 | 5.2 | 11.3 | 0.00 | 0.00 | 0.00 | 59 | 974.7 |
| 20260901121803 | 68 | 2 | 5.2 | 11.3 | 0.00 | 0.00 | 0.00 | 59 | 975.0 |
| 20260901121343 | 68 | 2 | 5.2 | 7.8 | 0.00 | 0.00 | 0.00 | 59 | 974.9 |
| 20260901120858 | 68 | 344 | 5.2 | 12.2 | 0.00 | 0.00 | 0.00 | 59 | 974.7 |
| 20260901120446 | 68 | 324 | 5.2 | 6.1 | 0.00 | 0.00 | 0.00 | 59 | 974.7 |
| 20260901120018 | 68 | 314 | 0.9 | 11.3 | 0.00 | 0.00 | 0.00 | 59 | 974.9 |
| 20260901115525 | 68 | 297 | 3.5 | 11.3 | 0.00 | 0.00 | 0.00 | 59 | 974.7 |
| 20260901115113 | 69 | 342 | 7.8 | 11.3 | 0.00 | 0.00 | 0.00 | 59 | 974.9 |
| 20260901114628 | 67 | 12 | 5.2 | 11.3 | 0.00 | 0.00 | 0.00 | 59 | 974.7 |
| 20260901114153 | 67 | 3 | 7.8 | 12.2 | 0.00 | 0.00 | 0.00 | 59 | 974.8 |
| 20260901113703 | 67 | 353 | 2.6 | 15.6 | 0.00 | 0.00 | 0.00 | 55 | 974.8 |
| 20260901113228 | 67 | 0 | 2.6 | 12.2 | 0.00 | 0.00 | 0.00 | 55 | 974.8 |
| 20260901112803 | 67 | 358 | 8.7 | 9.6 | 0.00 | 0.00 | 0.00 | 55 | 974.7 |
| 20260901112348 | 67 | 291 | 7.0 | 12.2 | 0.00 | 0.00 | 0.00 | 55 | 974.9 |
| 20260901111920 | 67 | 302 | 7.0 | 12.2 | 0.00 | 0.00 | 0.00 | 55 | 974.8 |
| 20260901111501 | 66 | 302 | 7.0 | 21.7 | 0.00 | 0.00 | 0.00 | 55 | 974.8 |
| 20260901111055 | 66 | 288 | 7.0 | 15.6 | 0.00 | 0.00 | 0.00 | 58 | 974.8 |
| 20260901110626 | 66 | 354 | 5.2 | 12.2 | 0.00 | 0.00 | 0.00 | 58 | 974.8 |
| 20260901110158 | 66 | 354 | 7.8 | 7.8 | 0.00 | 0.00 | 0.00 | 58 | 974.9 |
| 20260901105708 | 66 | 348 | 7.8 | 12.2 | 0.00 | 0.00 | 0.00 | 58 | 974.9 |
| 20260901105238 | 67 | 21 | 7.8 | 6.1 | 0.00 | 0.00 | 0.00 | 58 | 974.8 |
| 20260901104753 | 67 | 335 | 5.2 | 6.1 | 0.00 | 0.00 | 0.00 | 59 | 975.0 |
| 20260901104327 | 65 | 345 | 5.2 | 11.3 | 0.00 | 0.00 | 0.00 | 59 | 974.8 |
| 20260901103903 | 65 | 10 | 5.2 | 9.6 | 0.00 | 0.00 | 0.00 | 59 | 974.8 |
| 20260901103422 | 65 | 196 | 2.6 | 13.9 | 0.00 | 0.00 | 0.00 | 59 | 975.1 |
| 20260901102935 | 66 | 255 | 2.6 | 13.9 | 0.00 | 0.00 | 0.00 | 59 | 974.8 |
| 20260901102508 | 66 | 291 | 13.9 | 13.9 | 0.00 | 0.00 | 0.00 | 59 | 975.0 |
| 20260901102048 | 67 | 291 | 4.3 | 13.9 | 0.00 | 0.00 | 0.00 | 59 | 974.8 |
| 20260901101618 | 67 | 132 | 4.3 | 12.2 | 0.00 | 0.00 | 0.00 | 62 | 974.7 |
| 20260901101143 | 65 | 312 | 3.5 | 12.2 | 0.00 | 0.00 | 0.00 | 62 | 974.8 |
| 20260901100713 | 65 | 275 | 1.7 | 12.2 | 0.00 | 0.00 | 0.00 | 62 | 975.1 |
| 20260901100258 | 65 | 351 | 1.7 | 9.6 | 0.00 | 0.00 | 0.00 | 63 | 975.1 |
| 20260901095828 | 64 | 302 | 1.7 | 13.9 | 0.00 | 0.00 | 0.00 | 63 | 974.9 |
| 20260901095403 | 63 | 290 | 5.2 | 13.9 | 0.00 | 0.00 | 0.00 | 63 | 974.7 |
| 20260901094943 | 64 | 245 | 4.3 | 13.9 | 0.00 | 0.00 | 0.00 | 63 | 974.8 |
| 20260901094513 | 64 | 322 | 0.9 | 12.2 | 0.00 | 0.00 | 0.00 | 63 | 975.1 |
| 20260901094025 | 64 | 297 | 10.4 | 9.6 | 0.00 | 0.00 | 0.00 | 63 | 975.1 |
| 20260901093538 | 63 | 297 | 3.5 | 7.8 | 0.00 | 0.00 | 0.00 | 66 | 974.9 |
| 20260901093053 | 63 | 322 | 7.8 | 11.3 | 0.00 | 0.00 | 0.00 | 66 | 974.9 |
| 20260901092614 | 63 | 243 | 7.8 | 15.6 | 0.00 | 0.00 | 0.00 | 67 | 975.0 |
| 20260901092148 | 65 | 348 | 5.2 | 11.3 | 0.00 | 0.00 | 0.00 | 67 | 975.0 |
| 20260901091735 | 65 | 346 | 5.2 | 0.0 | 0.00 | 0.00 | 0.00 | 67 | 975.2 |
| 20260901091248 | 62 | 278 | 0.9 | 12.2 | 0.00 | 0.00 | 0.00 | 67 | 974.9 |
| 20260901090803 | 62 | 166 | 5.2 | 12.2 | 0.00 | 0.00 | 0.00 | 66 | 975.1 |
| 20260901090343 | 62 | 329 | 4.3 | 12.2 | 0.00 | 0.00 | 0.00 | 70 | 975.0 |
| 20260901085903 | 62 | 329 | 3.5 | 4.3 | 0.00 | 0.00 | 0.00 | 70 | 975.0 |
| 20260901085423 | 62 | 351 | 1.7 | 4.3 | 0.00 | 0.00 | 0.00 | 70 | 975.1 |
| 20260901084953 | 63 | 301 | 4.3 | 4.3 | 0.00 | 0.00 | 0.00 | 70 | 975.1 |
| 20260901084513 | 63 | 301 | 5.2 | 4.3 | 0.00 | 0.00 | 0.00 | 71 | 974.9 |
| 20260901084015 | 62 | 301 | 5.2 | 12.2 | 0.00 | 0.00 | 0.00 | 77 | 974.9 |
| 20260901083548 | 62 | 275 | 5.2 | 9.6 | 0.00 | 0.00 | 0.00 | 77 | 974.9 |
| 20260901083148 | 62 | 314 | 10.4 | 9.6 | 0.00 | 0.00 | 0.00 | 77 | 974.9 |
| 20260901082728 | 63 | 107 | 1.7 | 9.6 | 0.00 | 0.00 | 0.00 | 77 | 975.1 |
| 20260901082253 | 62 | 321 | 3.5 | 11.3 | 0.00 | 0.00 | 0.00 | 77 | 974.7 |
| 20260901081828 | 62 | 307 | 3.5 | 7.8 | 0.00 | 0.00 | 0.00 | 77 | 974.7 |
| 20260901081405 | 62 | 307 | 6.1 | 11.3 | 0.00 | 0.00 | 0.00 | 77 | 975.0 |
| 20260901080945 | 62 | 290 | 0.9 | 7.8 | 0.00 | 0.00 | 0.00 | 77 | 975.0 |
| 20260901080458 | 61 | 295 | 6.1 | 6.1 | 0.00 | 0.00 | 0.00 | 77 | 974.9 |
| 20260901080043 | 61 | 330 | 6.1 | 7.8 | 0.00 | 0.00 | 0.00 | 77 | 974.6 |
| 20260901075623 | 61 | 330 | 2.6 | 9.6 | 0.00 | 0.00 | 0.00 | 77 | 974.9 |
| 20260901075143 | 62 | 330 | 2.6 | 9.6 | 0.00 | 0.00 | 0.00 | 77 | 974.8 |
| 20260901074728 | 62 | 330 | 4.3 | 9.6 | 0.00 | 0.00 | 0.00 | 77 | 974.6 |
| 20260901074258 | 62 | 330 | 3.5 | 7.8 | 0.00 | 0.00 | 0.00 | 77 | 974.7 |
| 20260901073858 | 62 | 330 | 0.9 | 7.8 | 0.00 | 0.00 | 0.00 | 78 | 974.6 |
| 20260901073423 | 62 | 313 | 0.9 | 7.8 | 0.00 | 0.00 | 0.00 | 78 | 974.6 |
| 20260901073006 | 60 | 313 | 7.8 | 11.3 | 0.00 | 0.00 | 0.00 | 78 | 974.6 |
| 20260901072544 | 60 | 313 | 0.0 | 7.8 | 0.00 | 0.00 | 0.00 | 86 | 974.6 |
| 20260901072108 | 60 | 329 | 0.0 | 13.9 | 0.00 | 0.00 | 0.00 | 86 | 974.5 |
| 20260901071622 | 60 | 301 | 5.2 | 9.6 | 0.00 | 0.00 | 0.00 | 86 | 974.5 |
| 20260901071203 | 60 | 273 | 1.7 | 7.8 | 0.00 | 0.00 | 0.00 | 86 | 974.6 |
| 20260901070733 | 60 | 342 | 1.7 | 6.1 | 0.00 | 0.00 | 0.00 | 86 | 974.6 |
| 20260901070253 | 60 | 295 | 0.0 | 4.3 | 0.00 | 0.00 | 0.00 | 86 | 974.4 |
| 20260901065833 | 60 | 305 | 0.0 | 6.1 | 0.00 | 0.00 | 0.00 | 86 | 974.4 |
| 20260901065353 | 59 | 317 | 1.7 | 2.6 | 0.00 | 0.00 | 0.00 | 86 | 974.4 |
| 20260901064935 | 59 | 310 | 1.7 | 7.8 | 0.00 | 0.00 | 0.00 | 86 | 974.5 |
| 20260901064458 | 59 | 306 | 7.0 | 7.8 | 0.00 | 0.00 | 0.00 | 86 | 974.4 |
| 20260901064015 | 57 | 279 | 3.5 | 7.8 | 0.00 | 0.00 | 0.00 | 86 | 974.4 |
| 20260901063558 | 57 | 279 | 1.7 | 7.8 | 0.00 | 0.00 | 0.00 | 86 | 974.3 |
| 20260901063143 | 57 | 279 | 2.6 | 7.8 | 0.00 | 0.00 | 0.00 | 86 | 974.4 |
| 20260901062658 | 57 | 342 | 0.9 | 2.6 | 0.00 | 0.00 | 0.00 | 86 | 974.4 |
| 20260901062228 | 57 | 149 | 0.9 | 2.6 | 0.00 | 0.00 | 0.00 | 86 | 974.3 |
| 20260901061808 | 57 | 149 | 0.9 | 2.6 | 0.00 | 0.00 | 0.00 | 92 | 974.4 |
| 20260901061338 | 57 | 149 | 0.0 | 2.6 | 0.00 | 0.00 | 0.00 | 92 | 974.3 |
| 20260901060843 | 57 | 149 | 1.7 | 0.9 | 0.00 | 0.00 | 0.00 | 92 | 974.4 |
| 20260901060428 | 57 | 118 | 0.0 | 0.9 | 0.00 | 0.00 | 0.00 | 92 | 974.6 |
| 20260901055953 | 57 | 118 | 0.0 | 0.0 | 0.00 | 0.00 | 0.00 | 92 | 974.4 |
| 20260901055458 | 57 | 118 | 0.9 | 0.9 | 0.00 | 0.00 | 0.00 | 92 | 974.4 |
| 20260901055033 | 57 | 210 | 1.7 | 0.9 | 0.00 | 0.00 | 0.00 | 92 | 974.4 |
| 20260901054613 | 57 | 274 | 0.0 | 0.9 | 0.00 | 0.00 | 0.00 | 92 | 974.4 |
| 20260901054153 | 57 | 274 | 0.0 | 0.0 | 0.00 | 0.00 | 0.00 | 92 | 974.3 |
| 20260901053718 | 57 | 274 | 0.0 | 2.6 | 0.00 | 0.00 | 0.00 | 92 | 974.3 |
| 20260901053243 | 57 | 354 | 0.9 | 2.6 | 0.00 | 0.00 | 0.00 | 92 | 974.4 |
| 20260901052803 | 57 | 354 | 0.9 | 2.6 | 0.00 | 0.00 | 0.00 | 92 | 974.3 |
| 20260901052333 | 57 | 354 | 0.9 | 4.3 | 0.00 | 0.00 | 0.00 | 92 | 974.4 |
| 20260901051838 | 57 | 354 | 0.0 | 2.6 | 0.00 | 0.00 | 0.00 | 92 | 974.2 |
| 20260901051433 | 57 | 343 | 0.9 | 4.3 | 0.00 | 0.00 | 0.00 | 92 | 974.2 |
| 20260901051003 | 57 | 256 | 0.9 | 0.9 | 0.00 | 0.00 | 0.00 | 92 | 974.0 |
| 20260901050543 | 57 | 256 | 0.9 | 4.3 | 0.00 | 0.00 | 0.00 | 92 | 974.3 |
| 20260901050058 | 57 | 256 | 0.9 | 4.3 | 0.00 | 0.00 | 0.00 | 92 | 974.3 |
| 20260901045633 | 57 | 256 | 0.9 | 4.3 | 0.00 | 0.00 | 0.00 | 92 | 974.3 |
| 20260901045213 | 57 | 256 | 0.9 | 4.3 | 0.00 | 0.00 | 0.00 | 92 | 974.2 |
| 20260901044743 | 57 | 256 | 0.9 | 4.3 | 0.00 | 0.00 | 0.00 | 92 | 974.1 |
| 20260901044326 | 57 | 256 | 1.7 | 12.2 | 0.00 | 0.00 | 0.00 | 92 | 974.2 |
| 20260901043859 | 57 | 256 | 1.7 | 6.1 | 0.00 | 0.00 | 0.00 | 92 | 974.2 |
| 20260901043443 | 57 | 203 | 1.7 | 2.6 | 0.00 | 0.00 | 0.00 | 92 | 974.2 |
| 20260901043008 | 57 | 203 | 0.9 | 7.8 | 0.00 | 0.00 | 0.00 | 92 | 973.9 |
| 20260901042553 | 57 | 203 | 0.9 | 7.8 | 0.00 | 0.00 | 0.00 | 92 | 974.2 |
| 20260901042138 | 57 | 203 | 0.9 | 7.8 | 0.00 | 0.00 | 0.00 | 92 | 974.1 |
| 20260901041701 | 57 | 203 | 0.9 | 7.8 | 0.00 | 0.00 | 0.00 | 92 | 974.2 |
| 20260901041233 | 57 | 205 | 1.7 | 6.1 | 0.00 | 0.00 | 0.00 | 92 | 974.0 |
| 20260901040738 | 57 | 205 | 1.7 | 6.1 | 0.00 | 0.00 | 0.00 | 92 | 973.9 |
| 20260901040308 | 57 | 205 | 1.7 | 4.3 | 0.00 | 0.00 | 0.00 | 92 | 974.0 |
| 20260901035838 | 57 | 205 | 0.0 | 4.3 | 0.00 | 0.00 | 0.00 | 92 | 973.8 |
| 20260901035408 | 57 | 205 | 0.9 | 4.3 | 0.00 | 0.00 | 0.00 | 92 | 973.7 |
| 20260901034918 | 57 | 205 | 0.9 | 4.3 | 0.00 | 0.00 | 0.00 | 92 | 973.9 |